[[{"header":{"parameterUnit":"m.s-1","parameterCategory":1,"la1":30.2991,"la2":30.254,"lo1":-89.0895,"lo2":-89.0444,"dy":0.0017,"dx":0.0017,"nx":28,"ny":28,"refTime":"2023-07-29T21:00:00:Z","depth":0,"parameterNumber":2,"parameterNumberName":"U-component_of_WINDS"},"data":[0,0,0,0,0,0,0,0,0,0,0,0,0,0,0,0,0,0,0,0,0,0,0,0,0,0,0,0,0,0,0,0,0,0,0,0,0,0,0,0,0,0,0,0,0,0,0,0,0,0,0,0,0,0,0,0,0,0,-0.4974,-0.4973,0,-0.4843,-0.4841,-0.484,-0.4793,-0.4793,-0.4794,-0.4794,-0.4655,-0.4651,-0.4647,0,0,0,0,0,0,0,0,0,0,0,0,0,-0.5182,-0.5178,-0.4975,-0.4973,-0.4971,-0.4843,-0.4841,-0.4839,-0.4793,-0.4793,-0.4794,-0.4795,-0.4656,-0.4651,-0.4646,0,0,0,0,0,0,0,0,0,0,0,0,0,-0.5075,-0.5177,-0.4975,-0.4933,-0.4928,-0.4843,-0.4841,-0.4839,-0.4793,-0.4793,-0.4794,-0.4795,-0.4658,-0.4652,-0.4646,-0.4592,0,0,-0.4626,-0.4624,0,0,0,0,0,0,0,0,-0.5081,-0.5067,-0.494,-0.4935,-0.493,-0.4835,-0.4863,-0.4756,-0.4793,-0.4844,-0.4794,-0.4795,-0.4714,-0.4703,-0.4677,-0.4586,-0.458,-0.4626,-0.4622,-0.4619,-0.4618,0,0,0,0,0,0,0,-0.5088,-0.5073,-0.4922,-0.4939,-0.4932,-0.4919,-0.4905,-0.4842,-0.4776,-0.4839,-0.4836,-0.4821,-0.4711,-0.4683,-0.4673,-0.4578,-0.4626,-0.462,-0.4617,-0.4614,-0.4436,-0.4435,0,0,0,0,0,0,-0.5103,-0.5079,-0.4926,-0.4918,-0.5009,-0.4915,-0.4899,-0.4865,-0.4777,-0.4764,-0.482,-0.4819,-0.4693,-0.468,-0.4668,-0.4599,-0.4619,-0.4614,-0.461,-0.4437,-0.4436,-0.4435,0,0,0,0,0,0,-0.5108,-0.509,-0.4932,-0.4998,-0.4977,-0.491,-0.4873,-0.4862,-0.4833,-0.4763,-0.475,-0.4804,-0.4693,-0.4677,-0.4612,-0.4594,-0.4611,-0.4605,-0.4438,-0.4437,-0.4435,-0.4463,0,0,0,0,0,0,-0.5114,-0.5092,-0.5072,-0.4998,-0.4973,-0.4879,-0.4871,-0.4859,-0.4823,-0.482,-0.4744,-0.4732,-0.4692,-0.4621,-0.4605,-0.4586,-0.46,-0.4439,-0.4437,-0.4436,-0.4463,-0.4462,-0.4462,0,0,0,0,0,-0.5122,-0.5084,-0.5072,-0.5053,-0.4947,-0.4878,-0.4864,-0.4821,-0.4822,-0.4801,-0.4755,-0.4734,-0.4599,-0.4615,-0.4597,-0.4575,-0.444,-0.4438,-0.4436,-0.4463,-0.4462,-0.4462,0,0,0,0,0,0,-0.5157,-0.5074,-0.5059,-0.4996,-0.4945,-0.4871,-0.4842,-0.4821,-0.4767,-0.4767,-0.4714,-0.4697,-0.4636,-0.4599,-0.4619,-0.4519,-0.4518,-0.4512,-0.4545,-0.4544,-0.4543,-0.4553,-0.4595,0,0,0,0,0,-0.5157,-0.511,-0.5039,-0.4991,-0.4966,-0.4909,-0.4877,-0.4849,-0.4793,-0.477,-0.472,-0.4665,-0.461,-0.4575,-0.452,-0.4458,-0.444,-0.4433,-0.4433,-0.4433,-0.4428,-0.4392,-0.4388,-0.4428,-0.4428,-0.4428,0,0,-0.5158,-0.5106,-0.5079,-0.4996,-0.4953,-0.4904,-0.4891,-0.4839,-0.4801,-0.4762,-0.4698,-0.4659,-0.4594,-0.453,-0.45,-0.4497,-0.4413,-0.443,-0.443,-0.4425,-0.4389,-0.4385,-0.4382,-0.4426,-0.4426,-0.4427,0,0,-0.5133,-0.509,-0.5045,-0.5002,-0.4938,-0.49,-0.489,-0.4819,-0.4792,-0.4727,-0.4697,-0.465,-0.4557,-0.4512,-0.4477,-0.4437,-0.4415,-0.442,-0.4417,-0.4382,-0.4379,-0.4376,-0.4361,-0.4356,-0.4416,-0.4416,-0.4416,0,-0.5141,-0.5067,-0.5024,-0.4974,-0.4938,-0.4902,-0.4855,-0.4816,-0.4736,-0.4712,-0.4711,-0.4593,-0.4547,-0.4472,-0.4462,-0.4435,-0.4421,-0.4428,-0.4383,-0.4379,-0.4376,-0.4361,-0.4356,-0.4417,-0.4417,-0.4417,-0.4417,0,-0.508,-0.5029,-0.5,-0.4926,-0.4887,-0.4839,-0.4787,-0.4753,-0.4728,-0.469,-0.4624,-0.4568,-0.4502,-0.4482,-0.4456,-0.4403,-0.4403,-0.4394,-0.4392,-0.4374,-0.4359,-0.4353,-0.4419,-0.4418,-0.4418,-0.4418,0,0,-0.5073,-0.4977,-0.4966,-0.4933,-0.4859,-0.4818,-0.4768,-0.4705,-0.4676,-0.4623,-0.4579,-0.4501,-0.4492,-0.4452,-0.4421,-0.4391,-0.4362,-0.4384,-0.4382,-0.4381,-0.4299,-0.4307,-0.4301,-0.4347,-0.4346,-0.4345,-0.4304,0,-0.5038,-0.4949,-0.4909,-0.4837,-0.4789,-0.4754,-0.4711,-0.466,-0.4624,-0.4577,-0.4535,-0.4481,-0.4473,-0.4449,-0.4418,-0.4372,-0.4344,-0.4374,-0.4305,-0.4303,-0.4322,-0.4293,-0.4301,-0.4265,-0.4298,-0.4297,-0.4296,0,-0.4986,-0.4934,-0.4858,-0.4791,-0.4769,-0.4731,-0.467,-0.4626,-0.4567,-0.4543,-0.4499,-0.447,-0.4415,-0.4418,-0.4341,-0.4362,-0.4331,-0.4305,-0.4302,-0.4293,-0.4298,-0.4283,-0.4253,-0.4247,-0.4287,-0.4288,-0.4288,0,-0.4988,-0.4899,-0.4842,-0.4814,-0.4734,-0.4708,-0.4673,-0.4616,-0.4581,-0.4527,-0.4503,-0.4443,-0.441,-0.4364,-0.4318,-0.4325,-0.4245,-0.4245,-0.4222,-0.4223,-0.4206,-0.4208,-0.417,-0.4188,-0.4188,-0.4188,-0.4188,0,-0.4953,-0.4907,-0.4842,-0.4807,-0.4755,-0.4709,-0.4658,-0.4621,-0.457,-0.4526,-0.4492,-0.4451,-0.4394,-0.4346,-0.431,-0.4252,-0.4237,-0.4215,-0.4205,-0.4217,-0.422,-0.4196,-0.4197,-0.4186,-0.4187,-0.4187,-0.4187,0,-0.4946,-0.49,-0.4836,-0.4766,-0.4748,-0.4712,-0.4652,-0.4616,-0.4578,-0.4523,-0.4507,-0.4448,-0.4389,-0.434,-0.4262,-0.4238,-0.4177,-0.4166,-0.4197,-0.4192,-0.4173,-0.4175,-0.4117,-0.4107,-0.4132,-0.4132,-0.4132,0,-0.4926,-0.4891,-0.4818,-0.4787,-0.4753,-0.4704,-0.4668,-0.4621,-0.4585,-0.4517,-0.4489,-0.4428,-0.4377,-0.4285,-0.4234,-0.4174,-0.4161,-0.4145,-0.4152,-0.4165,-0.416,-0.4163,-0.4159,-0.4145,-0.4145,-0.4145,-0.4145,0,-0.4897,-0.4876,-0.4827,-0.4769,-0.4728,-0.468,-0.4631,-0.4607,-0.4552,-0.4512,-0.4453,-0.4414,-0.4336,-0.4276,-0.4211,-0.4173,-0.4149,-0.4143,-0.4135,-0.4146,-0.4165,-0.4154,-0.4195,-0.4144,-0.4144,-0.4144,-0.4144,-0.4144,-0.4882,-0.4849,-0.4793,-0.4739,-0.4698,-0.4653,-0.4616,-0.4575,-0.4525,-0.4459,-0.4434,-0.4373,-0.4315,-0.4226,-0.4189,-0.414,-0.4136,-0.4124,-0.4121,-0.4119,-0.412,-0.4174,-0.4128,-0.4127,-0.4127,-0.4127,-0.4127,0,-0.485,-0.4813,-0.4764,-0.4698,-0.4655,-0.4638,-0.4583,-0.4548,-0.4496,-0.4445,-0.4396,-0.4328,-0.427,-0.4214,-0.4153,-0.4124,-0.4112,-0.4109,-0.4111,-0.4102,-0.4127,-0.414,-0.4121,-0.4121,-0.4121,-0.4121,-0.4121,-0.4121,-0.4829,-0.4772,-0.4745,-0.4667,-0.463,-0.4571,-0.4541,-0.45,-0.4459,-0.4385,-0.4337,-0.4302,-0.4249,-0.4184,-0.4129,-0.4114,-0.4093,-0.4094,-0.4076,-0.4099,-0.4101,-0.4102,-0.4114,-0.409,-0.4089,-0.4055,-0.4055,-0.4055]},{"header":{"parameterUnit":"m.s-1","parameterCategory":1,"la1":30.2991,"la2":30.254,"lo1":-89.0895,"lo2":-89.0444,"dy":0.0017,"dx":0.0017,"nx":28,"ny":28,"refTime":"2023-07-29T21:00:00:Z","depth":0,"parameterNumber":3,"parameterNumberName":"V-component_of_WINDS"},"data":[0,0,0,0,0,0,0,0,0,0,0,0,0,0,0,0,0,0,0,0,0,0,0,0,0,0,0,0,0,0,0,0,0,0,0,0,0,0,0,0,0,0,0,0,0,0,0,0,0,0,0,0,0,0,0,0,0,0,2.5706,2.5705,0,2.5655,2.5655,2.5654,2.5661,2.5661,2.5662,2.5663,2.5606,2.5604,2.5601,0,0,0,0,0,0,0,0,0,0,0,0,0,2.5802,2.58,2.5706,2.5705,2.5704,2.5655,2.5655,2.5654,2.566,2.5661,2.5663,2.5663,2.5607,2.5604,2.5601,0,0,0,0,0,0,0,0,0,0,0,0,0,2.5757,2.58,2.5706,2.5702,2.5701,2.5656,2.5655,2.5654,2.566,2.5662,2.5663,2.5664,2.5608,2.5604,2.5601,2.5554,0,0,2.559,2.5589,0,0,0,0,0,0,0,0,2.5759,2.5753,2.5703,2.5702,2.5701,2.5666,2.5668,2.562,2.566,2.5676,2.5663,2.5665,2.5624,2.562,2.5607,2.5552,2.5549,2.559,2.5588,2.5586,2.5585,0,0,0,0,0,0,0,2.5762,2.5755,2.5686,2.5702,2.5701,2.5701,2.5696,2.5659,2.5643,2.5674,2.5675,2.5669,2.5624,2.5611,2.5606,2.5548,2.559,2.5587,2.5585,2.5583,2.5451,2.5449,0,0,0,0,0,0,2.5767,2.5758,2.5687,2.5684,2.5734,2.5698,2.5692,2.5676,2.5644,2.564,2.5668,2.5669,2.5616,2.561,2.5604,2.5546,2.5586,2.5583,2.5581,2.5452,2.545,2.5449,0,0,0,0,0,0,2.5769,2.5761,2.5689,2.5721,2.5712,2.5695,2.5676,2.5674,2.5661,2.5639,2.5636,2.5657,2.5617,2.5609,2.5567,2.5544,2.5582,2.5578,2.5454,2.5452,2.545,2.5431,0,0,0,0,0,0,2.5772,2.5762,2.5745,2.5721,2.571,2.5654,2.5675,2.5672,2.5655,2.5657,2.5628,2.5625,2.5617,2.5572,2.5563,2.554,2.5576,2.5456,2.5453,2.545,2.5434,2.5429,2.5424,0,0,0,0,0,2.5775,2.5741,2.5744,2.5735,2.5689,2.5653,2.5647,2.564,2.5654,2.5636,2.5622,2.5626,2.5549,2.5567,2.5558,2.5533,2.5457,2.5454,2.545,2.5436,2.543,2.5425,0,0,0,0,0,0,2.576,2.5737,2.5741,2.5698,2.5678,2.5654,2.5631,2.5634,2.5608,2.5611,2.5602,2.5596,2.5553,2.5539,2.556,2.5486,2.5504,2.5499,2.5496,2.5491,2.5486,2.5489,2.5573,0,0,0,0,0,2.5753,2.5727,2.5707,2.5671,2.5661,2.5648,2.5632,2.5629,2.5607,2.5598,2.5581,2.5558,2.5528,2.5509,2.5481,2.5433,2.5425,2.5411,2.5406,2.5403,2.5397,2.5369,2.5362,2.5438,2.5438,2.5438,0,0,2.5735,2.5719,2.5703,2.5668,2.5652,2.5623,2.5641,2.561,2.5588,2.5593,2.5552,2.5539,2.5512,2.5467,2.5446,2.5454,2.5375,2.5399,2.5396,2.5392,2.5365,2.5358,2.5352,2.5436,2.5436,2.5437,0,0,2.5688,2.5675,2.5643,2.5627,2.5603,2.5595,2.5587,2.5564,2.5556,2.5516,2.5518,2.5491,2.5441,2.5422,2.5406,2.5353,2.5354,2.5344,2.5318,2.5291,2.5285,2.528,2.5259,2.5252,2.5339,2.5339,2.5339,0,2.5669,2.5628,2.5625,2.5594,2.5578,2.5583,2.5549,2.5533,2.5501,2.5488,2.5499,2.5436,2.5419,2.5368,2.5355,2.5343,2.5332,2.5346,2.5287,2.5281,2.5276,2.5256,2.5249,2.5338,2.5338,2.5338,2.5338,0,2.5604,2.5576,2.5553,2.5523,2.5504,2.5472,2.5463,2.5444,2.5443,2.5433,2.5391,2.5371,2.5338,2.5326,2.5324,2.5275,2.5281,2.5289,2.5307,2.5268,2.5249,2.5241,2.5336,2.5336,2.5337,2.5337,0,0,2.5545,2.5516,2.5507,2.5493,2.5468,2.5445,2.5413,2.5383,2.5366,2.5344,2.5315,2.5273,2.5281,2.5262,2.5258,2.5235,2.5192,2.5246,2.5245,2.5235,2.5134,2.5127,2.5118,2.5194,2.5193,2.5192,2.5136,0,2.5494,2.5439,2.5436,2.5385,2.5357,2.5362,2.5334,2.5314,2.5304,2.5278,2.5267,2.5237,2.525,2.5239,2.5216,2.5202,2.5171,2.5206,2.5165,2.5163,2.5169,2.5108,2.51,2.5049,2.5129,2.5127,2.5127,0,2.5428,2.5405,2.5352,2.5331,2.5319,2.5294,2.5266,2.5242,2.5219,2.5214,2.5194,2.5193,2.5158,2.5179,2.5129,2.5153,2.5136,2.5126,2.5124,2.5118,2.5141,2.5099,2.5032,2.5024,2.5115,2.5116,2.5117,0,2.5387,2.5344,2.5306,2.5295,2.5269,2.5251,2.5239,2.5218,2.52,2.5176,2.5164,2.5135,2.5118,2.5095,2.5085,2.5102,2.5035,2.5056,2.5028,2.5028,2.5011,2.5012,2.4939,2.5004,2.5004,2.5004,2.5005,0,2.533,2.5296,2.5288,2.5264,2.5227,2.5223,2.5185,2.5174,2.5156,2.5129,2.5131,2.5105,2.5096,2.5068,2.5061,2.502,2.5013,2.5005,2.5003,2.5004,2.5005,2.4991,2.4993,2.5002,2.5003,2.5003,2.5004,0,2.5277,2.5271,2.523,2.521,2.5204,2.5177,2.5159,2.5135,2.5127,2.5092,2.5084,2.507,2.5037,2.5027,2.4987,2.4982,2.4933,2.4935,2.4941,2.494,2.4912,2.4914,2.4826,2.4813,2.4888,2.4888,2.4887,0,2.524,2.5215,2.5193,2.5176,2.5164,2.5137,2.5119,2.5115,2.5096,2.5068,2.5048,2.5016,2.499,2.4938,2.4922,2.4892,2.4892,2.4863,2.4887,2.4888,2.4889,2.4889,2.4886,2.4858,2.4857,2.4856,2.4856,0,2.5174,2.5172,2.5148,2.5122,2.5102,2.5081,2.506,2.5046,2.5038,2.5016,2.4984,2.4964,2.4925,2.4892,2.4861,2.4847,2.4849,2.4849,2.484,2.4839,2.4843,2.4839,2.4927,2.485,2.4851,2.4851,2.4851,2.4852,2.5127,2.5104,2.5086,2.5058,2.5043,2.5024,2.5001,2.499,2.4964,2.4932,2.4931,2.4896,2.4873,2.4832,2.4816,2.4787,2.4795,2.4783,2.478,2.4776,2.4773,2.485,2.4782,2.4782,2.4782,2.4782,2.4782,0,2.5059,2.5048,2.5023,2.4995,2.4973,2.4981,2.4958,2.4939,2.4908,2.4888,2.4863,2.4826,2.4795,2.4778,2.4746,2.4726,2.4726,2.4718,2.4718,2.4714,2.4769,2.4779,2.4718,2.4718,2.4718,2.4718,2.4718,2.4718,2.5021,2.4984,2.498,2.4934,2.4922,2.4889,2.4875,2.4857,2.4841,2.48,2.4775,2.4765,2.4745,2.4713,2.4684,2.468,2.4667,2.4657,2.4653,2.4704,2.471,2.4717,2.4726,2.4655,2.4655,2.4601,2.46,2.46]}]]